Regional Weather Roundup
Issued by NWS Northern Indiana

Home | Current Version | Previous Version | Text Only | Print | Product List | Glossary Off
Versions: 1 2 3 4 5 6 7 8 9 10 11 12 13 14 15 16 17 18 19 20 21 22 23 24 25 26 27 28 29 30 31 32 33 34 35 36 37 38 39 40 41 42 43 44 45 46 47 48 49 50

000
ASUS43 KIWX 041700
RWRIWX

KIWX WEATHER ROUNDUP
NATIONAL WEATHER SERVICE NORTHERN INDIANA
100 PM EDT TUE AUG 04 2015

NOTE: "FAIR" INDICATES FEW OR NO CLOUDS BELOW 12,000 FEET WITH NO
SIGNIFICANT WEATHER AND/OR OBSTRUCTIONS TO VISIBILITY.

* THESE STATIONS ARE NOT UNDER NWS QUALITY CONTROL. THEY ALSO MAY NOT
  REPORT WEATHER SUCH AS PRECIPITATION OR FOG.

INZ001>027-041800-
NORTHERN INDIANA

CITY           SKY/WX    TMP DP  RH WIND       PRES   REMARKS
GARY*          PTSUNNY   79  50  36 W10       29.98S
SOUTH BEND     MOSUNNY   79  53  40 W9        29.98S
GOSHEN         MOSUNNY   77  57  50 W12G20    29.97F
MONTICELLO*    SUNNY     78  59  51 W8        29.99S
ANGOLA*        PTSUNNY   81  61  50 NW8       29.97S
FORT WAYNE     PTSUNNY   79  57  46 W12G20    29.98F
PERU/GRISSOM   SUNNY     77  59  53 W12       29.98F

$$
INZ028>050-041800-
CENTRAL INDIANA

CITY           SKY/WX    TMP DP  RH WIND       PRES   REMARKS
LAFAYETTE      MOSUNNY   79  60  52 NW10      30.00S
KOKOMO*        MOSUNNY   79  57  47 W13       30.00S
MUNCIE*        SUNNY     76  56  49 W6        30.00F
INDIANAPOLIS   PTSUNNY   81  54  39 W13       30.00F

$$
MIZ043>046-050>051-056>058-064>065-071>073-077>080-041800-
SOUTHWEST LOWER MICHIGAN

CITY           SKY/WX    TMP DP  RH WIND       PRES   REMARKS
BATTLE CREEK     N/A    N/A N/A N/A MISG      29.97S
BENTON HARBOR  SUNNY     77  60  55 W10       29.98R
COLDWATER*     MOSUNNY   77  51  40 W17       29.97R
HILLSDALE*     MOSUNNY   76  51  41 W12G20    29.97S
HOLLAND        SUNNY     77  58  51 W14       29.97S
GRAND RAPIDS   PTSUNNY   78  54  43 W18G25    29.95S
KALAMAZOO      MOSUNNY   77  54  44 W10       29.96F
STURGIS*       MOSUNNY   75  55  50 W8        29.97S
THREE RIVERS*  FAIR      78  52  40 W13       29.97S

$$
OHZ001>008-015>018-024>025-041800-
NORTHWEST OHIO

CITY           SKY/WX    TMP DP  RH WIND       PRES   REMARKS
DEFIANCE       MOSUNNY   80  54  40 W8        29.96F
FINDLAY        SUNNY     80  57  45 W13       29.96F
TOLEDO EXPRESS MOSUNNY   78  57  48 W13       29.94F
TOLEDO METCALF MOSUNNY   80  56  43 W15       29.95F
LIMA           MOSUNNY   78  55  44 SW12      29.99S

$$
AND FOR LAKE MICHIGAN COASTAL AND OPEN LAKE BUOY OBSERVATIONS

STATION/POSITION TEMP    WIND        PRES    VSBY  WAVE
                 AIR SEA DIR/SP/G                  HT/PER
                 (F)     (DEG/KT/KT) (MB)    (MI)  (FT/S)
CALUMET HARBOR    77     230/  6/ 11   N/A
MICHIGAN CITY     71     240/  8/  8   N/A
BURNS HARBOR      73     330/  4/  5 1015.6F
SAINT JOSEPH      76     220/  8/  9 1015.6R
4 MI NW BRIDGMAN  71 73  290/  8/  8   N/A           1/ 3
MICHIGAN CITY     72 74  270/  6/  8   N/A           1/ 3

$$
&&


USA.gov is the U.S. government's official web portal to all federal, state and local government web resources and services.